Dewpoint
59 59 51 48 45 42 39 37 32 26 23 22 20 24 24 27 28 33 39 47 47 48 48 48 50 48 48 49 50 49 48 49 50 50 50 50 54 54 54 54 57 59 59
60 51 44 42 40 35 29 26 25 24 21 19 19 21 22 25 26 30 31 38 42 42 41 41 41 41 42 44 45 45 46 46 47 48 51 53 52 51 52 52 56 57 58
52 45 38 35 32 27 25 24 23 24 21 19 19 20 21 23 25 29 27 28 30 35 36 35 34 34 35 37 39 41 42 42 43 43 44 44 46 50 50 51 52 53 53
45 39 35 32 27 26 25 23 20 22 21 20 20 20 21 25 22 23 23 23 25 23 25 31 30 30 30 31 34 37 38 38 40 40 40 41 42 45 46 46 47 48 48
38 32 31 28 26 24 23 19 20 20 20 20 17 15 24 27 23 21 22 23 24 24 22 21 23 20 23 30 33 35 36 36 37 37 38 39 40 44 44 44 45 46 47
34 31 28 26 24 23 20 19 19 20 20 19 18 18 29 30 25 26 23 20 19 21 20 19 17 16 17 23 29 32 32 33 35 35 36 38 40 43 43 43 44 44 45
30 29 27 25 23 21 19 17 19 18 19 18 15 17 20 23 30 29 15 17 18 18 16 14 15 15 14 18 21 27 31 32 33 34 35 37 39 41 41 42 43 43 43
30 29 26 24 22 21 20 19 20 18 18 18 15 18 14 15 16 20 17 16 13 13 14 13 16 14 15 16 18 24 25 29 32 35 36 37 37 38 40 41 41 41 42
26 26 25 23 23 22 21 20 19 17 16 18 16 13 10 11 11 13 16 15 14 13 13 16 15 14 15 15 17 19 23 29 31 33 35 36 37 38 39 39 39 39 39
24 23 22 21 21 20 20 16 17 17 16 15 16 14 13 13 9 10 13 13 13 13 15 15 15 15 15 16 17 20 23 27 29 31 34 36 37 37 38 38 38 39 40
23 22 21 20 19 18 18 17 18 16 16 15 15 14 14 14 15 15 12 12 14 15 15 15 15 15 14 16 17 19 23 25 29 31 33 34 35 35 36 35 36 36 38
21 20 19 19 18 17 18 18 19 19 17 16 15 15 15 14 13 14 13 13 14 15 15 15 14 14 15 16 18 20 22 26 28 29 30 32 32 33 33 33 34 35 37
20 19 17 16 16 18 18 18 18 18 17 16 15 14 16 16 15 15 15 15 14 15 13 13 12 13 14 18 17 19 24 25 25 26 28 30 30 29 29 29 30 30 31
19 18 16 14 14 15 16 17 17 17 16 16 18 18 17 17 17 17 16 16 15 12 11 9 11 13 16 16 19 21 20 21 22 24 25 26 26 25 26 26 27 30 33
17 15 15 14 14 14 15 16 15 14 15 17 17 18 18 18 18 18 18 17 16 13 11 11 11 13 16 18 18 19 20 20 22 24 25 25 25 26 26 28 27 28 27
14 14 14 14 14 14 15 15 14 15 15 16 17 18 18 17 17 17 17 17 17 16 14 13 14 15 17 17 18 19 19 21 22 23 24 24 24 24 25 24 25 24 25
14 13 13 13 13 14 14 13 13 15 17 18 19 19 19 18 16 15 15 16 16 16 16 16 16 17 18 18 18 19 20 21 22 21 20 20 21 22 24 25 26 27 27
13 12 12 13 14 13 13 11 13 16 18 18 19 19 19 15 14 14 15 15 16 17 17 18 18 18 18 20 21 20 19 16 15 15 18 20 22 23 23 24 25 26 27
13 13 14 14 13 14 12 11 13 16 18 19 19 19 17 15 14 14 15 17 18 18 19 19 19 20 22 23 21 19 15 14 15 17 18 19 21 22 23 24 24 24 25
14 14 14 14 14 12 12 12 17 19 20 20 21 20 18 16 16 17 19 19 18 18 18 19 22 26 23 21 18 14 14 16 17 19 19 20 21 21 22 21 22 22 23
15 14 14 13 13 12 10 19 21 21 20 19 19 18 17 18 22 23 22 20 20 20 24 25 28 23 21 16 12 15 17 20 20 20 19 20 18 19 21 21 21 21 21
15 14 13 13 13 11 19 23 23 20 19 18 17 17 17 20 19 22 21 22 22 25 28 27 24 19 14 13 15 18 22 21 19 19 18 20 20 20 20 20 19 20 21
14 13 12 12 12 12 20 22 22 20 19 18 19 19 18 18 21 19 21 22 26 29 26 22 19 14 14 17 23 26 22 21 20 20 21 20 19 18 19 18 19 20 22
12 12 11 12 12 12 20 21 22 19 18 18 19 19 18 19 19 21 22 27 27 22 16 16 16 17 22 25 23 20 22 22 22 20 18 18 18 17 18 19 20 21 23
11 11 12 12 11 12 17 21 22 18 17 17 18 17 19 19 21 21 26 26 18 14 15 16 21 24 22 19 20 21 22 21 19 17 17 17 16 18 19 20 20 18 20
11 11 11 12 14 12 15 21 21 19 17 16 16 17 19 21 20 25 22 17 16 15 18 24 18 15 16 16 18 18 21 21 20 18 16 19 20 19 18 16 17 21 22
Wind_Speed
7 6 5 5 4 3 3 3 4 5 5 6 6 6 6 6 4 2 5 13 13 13 13 14 14 14 14 14 13 14 13 15 14 13 12 11 10 11 10 9 9 9 10
7 8 7 6 5 4 3 4 5 5 5 6 6 6 5 3 2 1 2 9 14 14 14 14 14 14 14 14 13 14 14 14 14 15 15 14 13 13 13 12 9 9 9
11 10 9 7 5 4 4 4 4 4 5 6 6 5 4 2 1 3 3 3 6 12 13 14 15 15 15 15 14 14 15 15 16 16 17 17 17 15 14 14 13 12 12
13 11 8 7 6 5 4 4 5 4 6 7 7 5 5 4 3 3 3 3 4 4 4 12 14 14 16 16 15 14 15 16 16 17 18 18 19 15 15 17 17 17 17
13 12 9 9 7 5 5 4 5 6 8 10 8 8 5 5 5 3 3 3 4 5 6 7 11 10 15 15 14 14 14 17 17 19 20 20 20 16 18 18 19 18 18
14 13 11 9 7 6 6 4 5 6 8 11 9 5 1 3 5 3 2 2 3 4 5 9 12 11 11 12 14 14 16 19 20 20 22 22 20 17 19 21 21 21 21
13 14 12 10 7 8 7 5 4 6 8 12 7 2 1 1 5 5 6 4 2 5 8 9 12 12 11 15 14 15 18 17 20 21 22 23 20 21 22 23 24 23 24
12 13 12 10 9 8 8 7 6 4 5 9 7 4 4 3 1 6 3 4 5 8 8 15 14 14 15 13 13 17 17 19 22 22 23 22 22 23 24 25 27 28 28
12 13 12 11 9 8 7 6 6 7 5 5 7 5 3 3 11 2 4 6 7 9 14 13 14 16 13 14 13 15 16 19 22 24 25 26 26 27 28 29 30 32 34
13 13 12 11 10 8 7 6 5 5 4 5 1 3 3 3 4 8 3 8 7 14 16 14 15 18 15 13 15 15 16 21 28 28 27 27 28 29 31 33 35 35 36
13 13 12 11 10 8 7 6 4 4 3 2 3 4 4 5 5 6 15 10 16 15 14 13 17 12 13 14 14 12 20 27 26 27 28 29 31 33 35 37 38 39 39
12 12 11 10 9 9 7 6 4 2 1 1 2 3 4 5 7 9 15 18 20 18 16 16 10 13 13 15 14 17 26 26 28 28 28 30 32 33 35 37 38 38 40
13 12 11 9 8 8 7 5 3 1 1 3 3 4 5 7 9 12 15 19 19 20 15 10 11 13 14 13 17 25 27 28 28 29 30 32 33 34 35 36 38 40 41
13 13 10 9 8 7 6 4 3 1 2 3 4 6 7 8 9 11 14 17 24 18 20 17 17 10 10 18 21 26 23 26 27 29 31 33 35 35 35 35 37 37 39
14 13 11 9 7 6 4 3 1 2 3 3 5 6 8 9 10 11 13 14 18 25 23 15 10 16 18 19 21 23 24 27 29 32 33 34 34 34 37 37 39 40 41
15 13 11 9 7 5 3 1 2 2 4 4 5 8 9 10 12 12 13 15 16 21 26 18 21 21 21 21 23 23 24 28 29 32 34 34 35 37 37 39 38 38 39
14 12 10 8 6 4 2 2 2 3 5 6 6 8 11 12 13 13 14 15 16 18 25 24 23 22 25 24 24 22 22 24 25 32 34 35 35 36 37 36 38 38 39
12 11 9 7 4 2 1 2 4 4 6 8 8 9 12 11 14 14 13 15 16 18 22 31 25 24 25 24 24 26 24 24 24 27 33 34 35 36 35 36 37 37 38
12 9 7 5 3 1 1 3 5 7 8 9 10 11 13 13 14 14 15 16 17 19 21 23 27 24 23 19 24 25 24 23 22 27 30 32 34 36 36 36 37 38 39
10 8 6 4 2 1 3 4 6 8 10 10 11 12 14 14 14 16 17 19 20 21 23 23 25 24 20 23 24 23 23 22 23 23 27 29 31 32 33 34 38 39 38
8 6 5 3 1 2 3 7 8 10 11 12 13 14 14 14 17 18 18 20 22 21 21 22 20 22 24 24 24 22 23 23 25 22 24 22 21 24 25 30 31 34 33
7 5 3 1 2 3 5 7 9 11 12 13 14 15 15 17 16 19 21 22 24 23 24 20 22 25 28 25 23 22 24 25 27 20 20 29 22 27 24 23 30 34 36
5 3 1 2 3 4 6 9 11 12 12 13 14 16 17 15 17 18 20 25 24 24 23 27 26 26 26 25 25 25 25 25 26 26 26 31 24 26 23 24 33 34 36
3 1 1 3 4 4 7 11 12 13 12 13 14 16 18 18 18 19 24 21 18 23 22 19 24 25 24 23 24 26 25 27 26 24 21 28 25 26 24 24 34 34 32
2 0 2 4 5 6 7 11 13 13 12 14 14 16 17 18 19 25 23 21 25 23 20 23 26 29 29 31 25 20 21 21 25 25 23 21 22 25 27 29 20 20 24
1 1 3 4 4 7 8 12 13 12 14 15 17 16 17 18 23 24 23 25 24 23 22 24 23 23 22 21 21 18 17 20 21 23 14 18 24 20 16 17 16 25 21
Wind_Direction
161 136 116 99 93 72 41 32 12 3 354 343 336 332 335 329 331 358 86 41 52 54 49 40 39 27 19 15 16 8 1 359 354 347 338 328 331 335 331 324 322 326 312
148 135 114 102 97 72 47 30 16 353 344 337 336 335 336 330 349 82 90 81 60 55 49 41 31 22 14 5 360 357 353 352 351 348 344 340 329 327 324 312 320 324 322
139 130 125 122 104 87 64 39 11 347 341 339 338 327 326 301 165 122 96 76 99 65 46 35 24 15 6 357 348 345 344 341 336 334 331 320 314 313 313 307 305 305 306
134 126 132 119 110 93 71 48 8 356 353 346 336 325 306 223 165 116 89 67 54 26 51 26 14 6 357 345 337 330 331 330 327 322 319 313 305 296 297 296 293 292 293
135 131 132 119 109 98 78 55 36 15 3 349 338 326 304 207 181 147 92 40 38 16 355 359 354 344 346 341 336 327 324 323 317 315 310 306 294 286 291 290 285 284 284
142 135 125 121 120 109 87 77 51 39 13 346 327 325 352 192 191 201 312 327 2 354 352 342 337 333 328 330 328 325 320 316 311 311 305 301 290 285 289 286 282 278 277
139 134 129 125 120 101 89 67 63 35 21 356 334 328 269 185 234 237 323 296 331 332 328 333 331 329 327 324 322 324 321 319 316 311 306 298 289 285 285 282 278 273 274
138 133 134 128 117 112 92 70 50 42 32 16 357 311 324 200 175 243 274 329 321 331 331 331 329 326 324 322 323 319 324 326 320 314 306 298 293 289 286 284 283 280 277
136 131 129 126 121 111 101 81 59 41 23 31 23 349 309 308 330 249 273 308 314 326 327 323 317 320 318 317 315 320 327 322 322 315 309 302 297 292 288 285 283 280 277
135 129 129 130 122 117 109 92 73 55 18 11 313 16 336 307 309 306 276 286 312 308 310 313 311 314 312 313 317 314 319 325 318 310 305 301 296 293 291 287 284 284 284
137 133 133 130 124 116 109 106 97 73 50 1 338 327 308 295 268 280 300 306 303 309 304 309 304 296 309 312 310 307 324 314 311 308 303 299 296 294 292 290 289 285 288
141 137 135 128 127 124 123 118 111 94 66 317 289 288 297 300 301 291 293 299 304 309 309 304 298 303 309 312 306 308 316 312 310 307 304 300 297 294 293 292 290 290 287
152 147 139 141 135 130 130 130 125 149 237 283 283 294 284 281 289 289 292 297 301 305 301 278 296 294 302 304 307 312 310 306 305 304 302 301 300 299 299 297 294 289 285
152 148 140 142 139 139 138 142 148 208 251 268 281 288 293 291 292 291 293 302 305 301 300 297 301 288 292 305 305 301 297 302 300 297 297 299 299 298 297 294 292 293 291
145 144 145 146 147 145 145 152 198 245 254 280 293 293 292 294 293 293 291 289 292 300 301 303 290 304 309 305 301 300 297 297 299 296 295 296 294 294 294 293 290 291 289
143 143 148 151 151 150 156 193 236 244 282 301 305 303 301 301 299 294 288 286 282 286 290 296 299 305 305 304 299 295 296 298 293 296 296 293 293 293 293 291 289 286 287
143 146 150 152 155 159 174 239 273 285 302 309 302 305 304 304 297 297 293 289 288 288 289 295 299 304 305 298 300 303 303 303 290 290 296 297 295 293 291 291 289 286 284
139 142 146 148 148 157 223 291 297 302 302 299 303 304 302 305 298 298 297 295 293 294 293 297 302 302 299 302 306 303 297 296 296 298 297 296 294 292 292 290 289 288 284
135 138 144 144 141 163 278 305 305 301 298 296 298 302 304 303 301 304 301 298 296 294 293 291 297 295 300 302 303 306 300 299 298 299 297 295 293 294 292 290 288 288 286
136 139 134 128 123 325 309 315 305 304 301 296 294 292 299 297 299 305 301 298 299 299 298 294 288 296 304 308 299 305 307 305 303 302 295 292 290 289 286 288 289 287 286
131 131 133 121 46 327 342 323 319 309 299 298 294 292 296 298 299 296 300 300 302 300 293 293 292 305 304 304 308 309 303 304 302 300 295 290 296 294 286 284 284 284 284
131 135 121 63 344 336 342 329 321 311 302 297 298 303 303 302 298 299 303 300 295 291 292 300 302 299 302 305 306 307 302 306 302 302 302 296 295 292 287 285 285 287 287
137 131 95 360 334 335 342 333 324 307 302 302 302 303 303 303 304 307 305 296 298 292 293 295 294 299 300 304 302 297 303 297 296 297 300 294 297 292 293 289 289 291 289
132 113 5 340 336 342 338 329 319 305 304 303 301 303 306 308 309 305 303 303 306 295 299 303 297 295 295 294 297 299 299 294 289 291 297 294 301 294 299 295 293 291 288
132 14 337 342 335 325 334 325 325 317 308 304 306 307 308 300 304 308 312 309 304 307 308 302 297 293 296 299 297 298 291 297 297 299 306 290 298 307 301 295 289 291 293
97 349 335 328 331 318 331 334 331 317 313 315 311 307 313 303 312 312 312 313 309 309 310 302 304 306 300 298 295 289 295 294 296 303 301 311 306 313 312 295 298 301 294